Погода в Веди

Армения     39°54′50″N   44°43′15″E
В апреле 2022 года жителям России запретили посещать сайт meteo.paraplan.net по решению Генеральной прокуратуры. Аудитория сайта уменьшилась в 10 раз. Владельцы сайта не видят смысла в поддержке погодного сервера в таких условиях. Сайт будет закрыт в октябре.
темп.,
°C
ветер,
м/с
пор.,
м/с
влажн.,
%
обл.,
%
осадки,
мм/ч
давл.,
гПа
погр.,
м
3 октября, пн
пн301:00+17всв4328100 0.0 100930
04:00+16всв2229100 0.0 100915
07:00+15всв2233100 0.0 100913
10:00+21ююз2322100 0.0 1009594
13:00+25юз321977 0.0 10081173
16:00+26з221699 0.0 10071491
19:00+20св222868 0.1 100814
22:00+20всв552410 0.1 100948
4 октября, вт
вт401:00+19в222780 0.0 101116
04:00+17всв33290 0.0 101216
07:00+15всв22350 0.0 101312
10:00+22юз22240 0.0 1014645
13:00+26ююз44190 0.0 10131720
16:00+27ю43150 0.0 10121931
19:00+22в33200 0.0 101312
22:00+21всв54200 0.0 101636
5 октября, ср
ср501:00+19всв33210 0.0 101718
04:00+18всв43270 0.0 101822
07:00+17всв43270 0.0 101923
10:00+24ююз23172 0.0 1019891
13:00+27ююз44142 0.0 10172248
16:00+28ю221380 0.0 10152534
19:00+21вюв111898 0.0 101612
22:00+21всв541882 0.0 101742
6 октября, чт
чт601:00+20всв441766 0.0 101731
04:00+19всв43181 0.0 101721
07:00+17всв32200 0.0 101715
10:00+24юз33150 0.0 1017760
13:00+27юз34147 0.0 10141508
16:00+28зюз34126 0.0 10112238
19:00+23всв331796 0.0 101213
22:00+20всв553884 0.0 101455
7 октября, пт
пт701:00+15в12530 0.0 101725
04:00+14вюв22590 0.0 101720
07:00+13вюв11630 0.0 101816
10:00+18юз22460 0.0 1018523
13:00+21юз32370 0.0 1016883
16:00+24ююз33290 0.0 10131211
19:00+17всв11440 0.0 101512
22:00+17всв44520 0.0 101751